[[{"header":{"parameterUnit":"m.s-1","parameterCategory":1,"la1":30.2991,"la2":30.254,"lo1":-89.0895,"lo2":-89.0444,"dy":0.0017,"dx":0.0017,"nx":28,"ny":28,"refTime":"2024-06-25T03:00:00:Z","depth":0,"parameterNumber":2,"parameterNumberName":"U-component_of_WINDS"},"data":[0,0,0,0,0,0,0,0,0,0,0,0,0,0,0,0,0,0,0,0,0,0,0,0,0,0,0,0,0,0,0,0,0,0,0,0,0,0,0,0,0,0,0,0,0,0,0,0,0,0,0,0,0,0,0,0,0,0,-0.5378,-0.5377,0,-0.523,-0.5229,-0.5227,-0.5148,-0.5148,-0.5148,-0.5148,-0.4991,-0.4987,-0.4983,0,0,0,0,0,0,0,0,0,0,0,0,0,-0.5586,-0.5583,-0.5379,-0.5377,-0.5375,-0.5231,-0.5229,-0.5226,-0.5148,-0.5148,-0.5148,-0.5148,-0.4992,-0.4987,-0.4982,0,0,0,0,0,0,0,0,0,0,0,0,0,-0.5473,-0.5582,-0.5379,-0.5319,-0.5312,-0.5231,-0.5228,-0.5226,-0.5148,-0.5148,-0.5148,-0.5148,-0.4994,-0.4988,-0.4982,-0.4948,0,0,-0.4963,-0.496,0,0,0,0,0,0,0,0,-0.5479,-0.5465,-0.5329,-0.5323,-0.5315,-0.5208,-0.5244,-0.5132,-0.5148,-0.521,-0.5148,-0.5148,-0.5063,-0.5051,-0.5023,-0.494,-0.4934,-0.4963,-0.4959,-0.4956,-0.4954,0,0,0,0,0,0,0,-0.5487,-0.5471,-0.532,-0.5327,-0.5318,-0.5296,-0.528,-0.5223,-0.5139,-0.5205,-0.5199,-0.5183,-0.5059,-0.5029,-0.5019,-0.4931,-0.4963,-0.4957,-0.4953,-0.4951,-0.4809,-0.4809,0,0,0,0,0,0,-0.5506,-0.5478,-0.5324,-0.5315,-0.5398,-0.5293,-0.5275,-0.5242,-0.514,-0.5124,-0.5183,-0.518,-0.504,-0.5026,-0.5013,-0.4964,-0.4956,-0.4951,-0.4947,-0.4809,-0.4809,-0.4809,0,0,0,0,0,0,-0.5511,-0.5493,-0.533,-0.5395,-0.5373,-0.529,-0.5254,-0.5239,-0.521,-0.5123,-0.5107,-0.5169,-0.5039,-0.5022,-0.4964,-0.4958,-0.4948,-0.4942,-0.4809,-0.4809,-0.4809,-0.4869,0,0,0,0,0,0,-0.5517,-0.5495,-0.5483,-0.5395,-0.537,-0.5286,-0.5253,-0.5237,-0.52,-0.5195,-0.5106,-0.5091,-0.5038,-0.4974,-0.4958,-0.4949,-0.4937,-0.4809,-0.4809,-0.4809,-0.4867,-0.487,-0.4874,0,0,0,0,0,-0.5525,-0.5506,-0.5483,-0.5465,-0.5354,-0.5286,-0.5271,-0.5212,-0.5201,-0.5186,-0.513,-0.5094,-0.4961,-0.4969,-0.495,-0.494,-0.481,-0.4809,-0.4809,-0.4865,-0.487,-0.4874,0,0,0,0,0,0,-0.5594,-0.5493,-0.5467,-0.542,-0.5362,-0.5273,-0.5254,-0.5219,-0.5163,-0.5159,-0.5087,-0.5067,-0.5016,-0.4972,-0.4981,-0.4899,-0.4881,-0.4878,-0.493,-0.4934,-0.4937,-0.4948,-0.4932,0,0,0,0,0,-0.5604,-0.556,-0.5473,-0.5439,-0.5412,-0.5338,-0.5307,-0.5266,-0.5203,-0.5178,-0.5117,-0.5056,-0.4999,-0.4964,-0.4908,-0.486,-0.4838,-0.4843,-0.4847,-0.485,-0.4847,-0.4815,-0.4816,-0.4808,-0.4808,-0.4808,0,0,-0.5623,-0.5563,-0.5539,-0.5452,-0.5402,-0.5356,-0.5318,-0.5271,-0.5235,-0.517,-0.5112,-0.5065,-0.4991,-0.4937,-0.491,-0.4899,-0.4844,-0.485,-0.4853,-0.4848,-0.4815,-0.4816,-0.4816,-0.4808,-0.4808,-0.4808,0,0,-0.5635,-0.5586,-0.5551,-0.5503,-0.5429,-0.5379,-0.5371,-0.5287,-0.5253,-0.5194,-0.5144,-0.5098,-0.5004,-0.4953,-0.4915,-0.4904,-0.4867,-0.4887,-0.4905,-0.4875,-0.4875,-0.4875,-0.4869,-0.4868,-0.4885,-0.4885,-0.4885,0,-0.5668,-0.5598,-0.5537,-0.5493,-0.5454,-0.5394,-0.5356,-0.5311,-0.5223,-0.5196,-0.5185,-0.5064,-0.501,-0.4942,-0.4939,-0.4911,-0.4897,-0.4897,-0.4881,-0.488,-0.4879,-0.4872,-0.4871,-0.4888,-0.4888,-0.4887,-0.4887,0,-0.5641,-0.5593,-0.5574,-0.5491,-0.545,-0.5409,-0.5339,-0.5304,-0.5267,-0.5218,-0.5156,-0.5089,-0.5017,-0.4998,-0.4961,-0.4923,-0.4918,-0.4895,-0.4875,-0.4884,-0.4876,-0.4873,-0.4892,-0.4891,-0.489,-0.4889,0,0,-0.5694,-0.5576,-0.557,-0.553,-0.5443,-0.5403,-0.5358,-0.5289,-0.526,-0.52,-0.5158,-0.5079,-0.5056,-0.5012,-0.4968,-0.4941,-0.4934,-0.492,-0.4917,-0.4924,-0.4886,-0.4903,-0.4902,-0.4909,-0.4909,-0.4908,-0.4891,0,-0.5692,-0.561,-0.5553,-0.5493,-0.5445,-0.5386,-0.5346,-0.5287,-0.524,-0.519,-0.5136,-0.5081,-0.5056,-0.5029,-0.5,-0.4941,-0.4925,-0.4942,-0.4867,-0.4865,-0.4887,-0.4898,-0.4917,-0.4904,-0.4888,-0.4888,-0.4887,0,-0.5679,-0.5622,-0.5557,-0.5473,-0.5451,-0.5417,-0.5347,-0.5302,-0.5232,-0.5199,-0.5149,-0.5104,-0.505,-0.5035,-0.4959,-0.4971,-0.4937,-0.4903,-0.4901,-0.4891,-0.4876,-0.4886,-0.4899,-0.4897,-0.4882,-0.4883,-0.4883,0,-0.5721,-0.5628,-0.5576,-0.5544,-0.5445,-0.5422,-0.5379,-0.5309,-0.5271,-0.5209,-0.5182,-0.5115,-0.5078,-0.5025,-0.4961,-0.4957,-0.489,-0.4871,-0.4858,-0.486,-0.4847,-0.4848,-0.4853,-0.4827,-0.4827,-0.4827,-0.4827,0,-0.5724,-0.5687,-0.5594,-0.5562,-0.5517,-0.545,-0.5406,-0.5358,-0.5296,-0.5251,-0.5195,-0.5154,-0.5073,-0.5021,-0.497,-0.4913,-0.4897,-0.4866,-0.4853,-0.4871,-0.4874,-0.4846,-0.4845,-0.4826,-0.4827,-0.4827,-0.4827,0,-0.5764,-0.5701,-0.564,-0.5551,-0.5528,-0.5498,-0.542,-0.5386,-0.5334,-0.5279,-0.5261,-0.518,-0.5116,-0.5047,-0.4959,-0.4925,-0.4869,-0.4851,-0.4893,-0.4886,-0.4877,-0.4878,-0.4862,-0.4856,-0.4837,-0.4837,-0.4837,0,-0.577,-0.5739,-0.5647,-0.5614,-0.5573,-0.5521,-0.5481,-0.5413,-0.5373,-0.529,-0.5264,-0.5196,-0.5138,-0.5037,-0.4969,-0.49,-0.4879,-0.4878,-0.4868,-0.4886,-0.4877,-0.4879,-0.4874,-0.4881,-0.4882,-0.4882,-0.4883,0,-0.5786,-0.5756,-0.5702,-0.5636,-0.559,-0.5535,-0.5477,-0.5452,-0.5372,-0.5329,-0.5264,-0.5219,-0.5129,-0.5061,-0.4984,-0.4936,-0.4895,-0.4887,-0.488,-0.4897,-0.4922,-0.4906,-0.4901,-0.4887,-0.4887,-0.4886,-0.4886,-0.4886,-0.5807,-0.5777,-0.5707,-0.5647,-0.5597,-0.5543,-0.5506,-0.545,-0.5394,-0.5317,-0.5279,-0.5213,-0.514,-0.5033,-0.4986,-0.4931,-0.4919,-0.491,-0.4907,-0.4905,-0.4909,-0.4932,-0.4917,-0.4917,-0.4916,-0.4916,-0.4916,0,-0.5819,-0.5771,-0.5717,-0.5638,-0.5591,-0.5558,-0.5491,-0.5453,-0.5396,-0.5333,-0.5277,-0.52,-0.5132,-0.5058,-0.4986,-0.4956,-0.4935,-0.4939,-0.494,-0.4929,-0.4925,-0.4938,-0.4957,-0.4957,-0.4957,-0.4957,-0.4957,-0.4957,-0.582,-0.5765,-0.5726,-0.5645,-0.5596,-0.5532,-0.5496,-0.5446,-0.5395,-0.5312,-0.5256,-0.5209,-0.514,-0.5062,-0.4997,-0.4977,-0.4952,-0.4961,-0.4935,-0.4933,-0.493,-0.4927,-0.4938,-0.4957,-0.4957,-0.4943,-0.4943,-0.4943]},{"header":{"parameterUnit":"m.s-1","parameterCategory":1,"la1":30.2991,"la2":30.254,"lo1":-89.0895,"lo2":-89.0444,"dy":0.0017,"dx":0.0017,"nx":28,"ny":28,"refTime":"2024-06-25T03:00:00:Z","depth":0,"parameterNumber":3,"parameterNumberName":"V-component_of_WINDS"},"data":[0,0,0,0,0,0,0,0,0,0,0,0,0,0,0,0,0,0,0,0,0,0,0,0,0,0,0,0,0,0,0,0,0,0,0,0,0,0,0,0,0,0,0,0,0,0,0,0,0,0,0,0,0,0,0,0,0,0,0.4571,0.4572,0,0.4696,0.4698,0.4699,0.472,0.4719,0.4718,0.4717,0.485,0.4854,0.4859,0,0,0,0,0,0,0,0,0,0,0,0,0,0.4353,0.4357,0.4571,0.4572,0.4574,0.4696,0.4698,0.47,0.472,0.4719,0.4718,0.4716,0.4848,0.4854,0.4859,0,0,0,0,0,0,0,0,0,0,0,0,0,0.446,0.4358,0.457,0.4599,0.4602,0.4696,0.4698,0.47,0.472,0.4719,0.4717,0.4716,0.4846,0.4853,0.486,0.4935,0,0,0.4881,0.4884,0,0,0,0,0,0,0,0,0.4454,0.4468,0.4593,0.4597,0.4601,0.4691,0.467,0.4779,0.4721,0.4676,0.4717,0.4715,0.4798,0.4809,0.4836,0.4941,0.4947,0.4881,0.4885,0.4888,0.489,0,0,0,0,0,0,0,0.4447,0.4463,0.4621,0.4595,0.46,0.4607,0.462,0.4691,0.4745,0.468,0.4681,0.4696,0.48,0.483,0.484,0.4949,0.4881,0.4887,0.4891,0.4894,0.5125,0.5127,0,0,0,0,0,0,0.4434,0.4457,0.4617,0.4624,0.4522,0.4612,0.4627,0.4664,0.4744,0.4755,0.4697,0.4696,0.4819,0.4832,0.4844,0.494,0.4888,0.4895,0.4899,0.5123,0.5125,0.5127,0,0,0,0,0,0,0.4429,0.4448,0.4611,0.4541,0.4562,0.4617,0.4659,0.4667,0.4697,0.4757,0.4768,0.4717,0.4818,0.4835,0.4913,0.4945,0.4898,0.4904,0.512,0.5123,0.5126,0.5131,0,0,0,0,0,0,0.4423,0.4446,0.4474,0.4541,0.4566,0.4676,0.4661,0.4671,0.4708,0.4708,0.4779,0.4789,0.4818,0.4902,0.4919,0.4954,0.4909,0.5118,0.5122,0.5125,0.5128,0.5134,0.5139,0,0,0,0,0,0.4415,0.4471,0.4475,0.4494,0.4602,0.4678,0.4692,0.4724,0.471,0.474,0.4779,0.4787,0.4938,0.491,0.493,0.4966,0.5116,0.512,0.5125,0.5126,0.5133,0.5139,0,0,0,0,0,0,0.4407,0.448,0.4486,0.4565,0.4615,0.4681,0.472,0.4729,0.4785,0.4784,0.4821,0.4837,0.4914,0.4947,0.4915,0.5045,0.5026,0.5035,0.502,0.5027,0.5032,0.5024,0.4915,0,0,0,0,0,0.4414,0.4468,0.4529,0.4593,0.4618,0.4664,0.4699,0.4718,0.4772,0.4794,0.4839,0.4892,0.4952,0.4991,0.5049,0.5132,0.515,0.5167,0.5172,0.5176,0.5185,0.5234,0.5243,0.5142,0.5142,0.5142,0,0,0.443,0.4476,0.4508,0.4593,0.4634,0.4691,0.4682,0.4743,0.4786,0.4804,0.4881,0.4915,0.4977,0.5059,0.5097,0.5089,0.5216,0.5182,0.5185,0.5191,0.524,0.5249,0.5258,0.5145,0.5145,0.5144,0,0,0.4489,0.4528,0.4587,0.4628,0.469,0.4721,0.4734,0.48,0.4823,0.49,0.4915,0.4968,0.507,0.5114,0.515,0.5226,0.5237,0.5244,0.5273,0.532,0.5328,0.5336,0.5366,0.5376,0.5251,0.5251,0.5251,0,0.4501,0.4587,0.4616,0.4677,0.4715,0.4731,0.4793,0.4832,0.491,0.4937,0.4926,0.5056,0.5098,0.5192,0.521,0.5238,0.5257,0.5238,0.5324,0.5332,0.5339,0.5369,0.538,0.5252,0.5252,0.5252,0.5252,0,0.4601,0.466,0.47,0.4775,0.4817,0.4877,0.4918,0.4957,0.4973,0.5005,0.5085,0.5136,0.5207,0.523,0.5246,0.5326,0.532,0.5316,0.5299,0.5349,0.5378,0.5389,0.5253,0.5253,0.5253,0.5253,0,0,0.466,0.475,0.4765,0.48,0.4869,0.4917,0.4978,0.5046,0.508,0.5133,0.5189,0.5274,0.5272,0.5312,0.5334,0.5375,0.5436,0.5367,0.5369,0.5381,0.5532,0.5537,0.5549,0.5442,0.5444,0.5446,0.5528,0,0.473,0.484,0.4869,0.4963,0.502,0.5036,0.5091,0.5141,0.5172,0.5226,0.5261,0.5323,0.5313,0.5338,0.5379,0.542,0.5467,0.5414,0.5496,0.5499,0.5484,0.5563,0.5568,0.5643,0.5539,0.554,0.5542,0,0.4827,0.4882,0.4981,0.5045,0.507,0.5118,0.5184,0.5234,0.5291,0.5312,0.5357,0.5375,0.5442,0.5419,0.5514,0.5477,0.5512,0.5537,0.5541,0.5553,0.5526,0.5581,0.5668,0.568,0.5559,0.5558,0.5556,0,0.4864,0.4963,0.5036,0.5065,0.514,0.5174,0.5208,0.5263,0.5303,0.536,0.5386,0.545,0.5487,0.5537,0.5572,0.5551,0.5666,0.5645,0.5687,0.5687,0.5714,0.5712,0.5811,0.573,0.573,0.573,0.5729,0,0.4941,0.5003,0.5054,0.51,0.517,0.5202,0.5271,0.5305,0.5354,0.5408,0.5426,0.5476,0.5518,0.5575,0.5603,0.568,0.5695,0.5715,0.5723,0.5716,0.5714,0.5742,0.5739,0.5733,0.5732,0.5731,0.5731,0,0.4997,0.5033,0.5115,0.5179,0.5197,0.5246,0.5302,0.5348,0.5379,0.5448,0.5465,0.5516,0.5584,0.5623,0.5709,0.5728,0.5814,0.5817,0.5794,0.5799,0.5841,0.5837,0.5964,0.5984,0.5886,0.5887,0.5888,0,0.5045,0.5093,0.5162,0.5199,0.5233,0.5291,0.5332,0.5365,0.5407,0.5476,0.5515,0.5583,0.564,0.5748,0.5794,0.586,0.5868,0.5907,0.5878,0.587,0.5873,0.5871,0.5877,0.5913,0.5914,0.5915,0.5916,0,0.5129,0.5145,0.5201,0.5264,0.5312,0.5363,0.5415,0.5444,0.5487,0.5533,0.5602,0.5646,0.5734,0.5803,0.5873,0.5909,0.5921,0.5924,0.5938,0.5934,0.592,0.5932,0.5812,0.5922,0.5921,0.5921,0.592,0.592,0.5185,0.5229,0.5285,0.5348,0.539,0.5438,0.5485,0.5522,0.558,0.5653,0.5669,0.5743,0.5801,0.5896,0.5934,0.5994,0.5987,0.6007,0.6012,0.6018,0.6021,0.5907,0.6006,0.6006,0.6006,0.6006,0.6006,0,0.5273,0.5309,0.5367,0.5438,0.5488,0.5492,0.5549,0.5592,0.5656,0.5708,0.5764,0.5844,0.5912,0.5962,0.6031,0.607,0.6077,0.6087,0.6087,0.6096,0.6021,0.6004,0.608,0.608,0.608,0.608,0.608,0.608,0.5324,0.54,0.5423,0.552,0.5557,0.5628,0.5661,0.5707,0.5749,0.5838,0.5893,0.5925,0.5977,0.6051,0.6113,0.6127,0.6153,0.6163,0.6178,0.6108,0.61,0.6093,0.6077,0.6168,0.6168,0.6248,0.6249,0.6249]}]]